Location: Unspecified
(51.0950°N, 12.9690°E)
Time: 21:18:02
(UTC+00:00)

SL-8 R/B - Pass Details

Date: 28 October 2021
Orbit: 656 x 667 km, 48.4° (Epoch: 01 December)

Event Time Altitude Azimuth Distance (km) Brightness Sun altitude
Rises 16:25:40 0° 261° (W) 2,981 9.7 -6.3°
Reaches altitude 10° 16:28:01 10° 259° (W) 2,071 8.1 -6.7°
Maximum altitude 16:32:44 65° 178° (S) 727 4.0 -7.4°
Drops below altitude 10° 16:37:29 10° 97° (E) 2,078 5.7 -8.1°
Enters shadow 16:37:44 - 97° (E) 2,170 5.7 -8.2°
